Location: Ethel Rock
(53.4667°N, 4.5667°W)
Time: 01:20:25
(UTC+00:00)

Cosmos 1867 - Pass Details

Date: 24 October 2020
Orbit: 776 x 799 km, 65.0° (Epoch: 26 November)

Event Time Altitude Azimuth Distance (km) Brightness Sun altitude
Exits shadow 04:36:16 40° 307° (NW) 1,174 4.1 -22.3°
Maximum altitude 04:37:04 42° 329° (NNW) 1,130 4.2 -22.2°
Drops below altitude 10° 04:42:16 10° 41° (NE) 2,382 6.7 -21.4°
Sets 04:44:50 0° 48° (NE) 3,316 7.7 -21.1°
